| time (UTC) | temp C | wind direction | speed KPH | gust KPH | rain 1hr cm | rain 24hr cm | rain mn cm | humidity % | barometer mb |
| 20260510074904 | 0 | 306 | 0.0 | 0.0 | 0.00 | 0.00 | 0.00 | 62 | 1023.1 |
| 20260510074404 | 0 | 306 | 0.0 | 0.0 | 0.00 | 0.00 | 0.00 | 62 | 1023.1 |
| 20260510073904 | 1 | 306 | 0.0 | 0.0 | 0.00 | 0.00 | 0.00 | 62 | 1023.0 |
| 20260510073406 | 1 | 306 | 0.0 | 0.0 | 0.00 | 0.00 | 0.00 | 62 | 1023.0 |
| 20260510072904 | 1 | 306 | 0.0 | 0.0 | 0.00 | 0.00 | 0.00 | 62 | 1023.0 |
| 20260510071904 | 1 | 306 | 0.0 | 0.0 | 0.00 | 0.00 | 0.00 | 63 | 1022.9 |
| 20260510071404 | 1 | 306 | 0.0 | 0.0 | 0.00 | 0.00 | 0.00 | 63 | 1022.9 |
| 20260510070904 | 1 | 306 | 0.0 | 0.0 | 0.00 | 0.00 | 0.00 | 62 | 1022.9 |
| 20260510070404 | 1 | 306 | 0.0 | 0.0 | 0.00 | 0.00 | 0.00 | 60 | 1022.9 |
| 20260510065904 | 1 | 306 | 0.0 | 0.0 | 0.00 | 0.00 | 0.00 | 60 | 1022.8 |
| 20260510065404 | 1 | 306 | 0.0 | 0.0 | 0.00 | 0.00 | 0.00 | 60 | 1022.8 |
| 20260510064904 | 1 | 306 | 0.0 | 0.0 | 0.00 | 0.00 | 0.00 | 60 | 1022.7 |
| 20260510064404 | 1 | 306 | 0.0 | 0.0 | 0.00 | 0.00 | 0.00 | 60 | 1022.7 |
| 20260510063404 | 1 | 306 | 0.0 | 0.0 | 0.00 | 0.00 | 0.00 | 59 | 1022.4 |
| 20260510062903 | 2 | 306 | 0.0 | 0.0 | 0.00 | 0.00 | 0.00 | 60 | 1022.3 |
| 20260510062404 | 2 | 306 | 0.0 | 0.0 | 0.00 | 0.00 | 0.00 | 59 | 1022.3 |
| 20260510061904 | 2 | 306 | 0.0 | 0.0 | 0.00 | 0.00 | 0.00 | 59 | 1022.3 |
| 20260510061404 | 2 | 306 | 0.0 | 0.0 | 0.00 | 0.00 | 0.00 | 59 | 1022.3 |
| 20260510060904 | 2 | 306 | 0.0 | 0.0 | 0.00 | 0.00 | 0.00 | 59 | 1022.2 |
| 20260510060403 | 2 | 306 | 0.0 | 0.0 | 0.00 | 0.00 | 0.00 | 59 | 1022.2 |
| 20260510055905 | 2 | 306 | 0.0 | 0.0 | 0.00 | 0.00 | 0.00 | 59 | 1022.1 |
| 20260510054404 | 3 | 306 | 0.0 | 0.0 | 0.00 | 0.00 | 0.00 | 56 | 1022.0 |
| 20260510053904 | 3 | 306 | 0.0 | 0.0 | 0.00 | 0.00 | 0.00 | 57 | 1022.0 |
| 20260510053404 | 3 | 306 | 0.0 | 0.0 | 0.00 | 0.00 | 0.00 | 57 | 1021.9 |
| 20260510052904 | 3 | 306 | 0.0 | 0.0 | 0.00 | 0.00 | 0.00 | 57 | 1022.0 |
| 20260510052404 | 3 | 306 | 0.0 | 0.0 | 0.00 | 0.00 | 0.00 | 57 | 1021.9 |
| 20260510051904 | 3 | 306 | 0.0 | 0.0 | 0.00 | 0.00 | 0.00 | 56 | 1021.9 |
| 20260510051405 | 3 | 306 | 0.0 | 0.0 | 0.00 | 0.00 | 0.00 | 55 | 1021.9 |
| 20260510050904 | 3 | 306 | 0.0 | 0.0 | 0.00 | 0.00 | 0.00 | 55 | 1021.9 |
| 20260510050404 | 4 | 306 | 0.0 | 0.0 | 0.00 | 0.00 | 0.00 | 54 | 1021.8 |
| 20260510045904 | 4 | 306 | 0.0 | 0.0 | 0.00 | 0.00 | 0.00 | 53 | 1021.7 |
| 20260510044904 | 4 | 306 | 0.0 | 0.0 | 0.00 | 0.00 | 0.00 | 53 | 1021.7 |
| 20260510044404 | 5 | 306 | 0.0 | 0.0 | 0.00 | 0.00 | 0.00 | 53 | 1021.7 |
| 20260510043904 | 5 | 306 | 0.0 | 0.0 | 0.00 | 0.00 | 0.00 | 52 | 1021.6 |
| 20260510042904 | 5 | 306 | 0.0 | 0.0 | 0.00 | 0.00 | 0.00 | 50 | 1021.5 |
| 20260510042404 | 5 | 306 | 0.0 | 0.0 | 0.00 | 0.00 | 0.00 | 49 | 1021.5 |
| 20260510041903 | 6 | 306 | 0.0 | 0.0 | 0.00 | 0.00 | 0.00 | 50 | 1021.5 |
| 20260510041404 | 6 | 306 | 0.0 | 0.0 | 0.00 | 0.00 | 0.00 | 49 | 1021.5 |
| 20260510040904 | 6 | 306 | 0.0 | 0.0 | 0.00 | 0.00 | 0.00 | 48 | 1021.4 |
| 20260510035904 | 6 | 306 | 0.0 | 0.0 | 0.00 | 0.00 | 0.00 | 46 | 1021.3 |
| 20260510035404 | 7 | 306 | 0.0 | 0.0 | 0.00 | 0.00 | 0.00 | 42 | 1021.2 |
| 20260510034904 | 7 | 306 | 0.0 | 0.0 | 0.00 | 0.00 | 0.00 | 43 | 1021.1 |
| 20260510033903 | 7 | 306 | 0.0 | 0.0 | 0.00 | 0.00 | 0.00 | 43 | 1021.0 |
| 20260510033404 | 8 | 306 | 0.0 | 0.0 | 0.00 | 0.00 | 0.00 | 40 | 1020.9 |
| 20260510032904 | 8 | 306 | 0.0 | 0.0 | 0.00 | 0.00 | 0.00 | 39 | 1020.8 |
| 20260510032403 | 8 | 306 | 0.0 | 0.0 | 0.00 | 0.00 | 0.00 | 39 | 1020.7 |
| 20260510031904 | 8 | 306 | 0.0 | 0.0 | 0.00 | 0.00 | 0.00 | 40 | 1020.6 |
| 20260510031403 | 9 | 306 | 0.0 | 0.0 | 0.00 | 0.00 | 0.00 | 39 | 1020.4 |
| 20260510030904 | 10 | 306 | 0.0 | 0.0 | 0.00 | 0.00 | 0.00 | 34 | 1020.3 |
| 20260510025904 | 10 | 306 | 0.0 | 0.0 | 0.00 | 0.00 | 0.00 | 34 | 1020.2 |
| 20260510025403 | 11 | 306 | 0.0 | 0.0 | 0.00 | 0.00 | 0.00 | 35 | 1020.1 |
| 20260510024904 | 11 | 306 | 0.0 | 0.0 | 0.00 | 0.00 | 0.00 | 35 | 1020.1 |
| 20260510024404 | 11 | 306 | 0.0 | 0.0 | 0.00 | 0.00 | 0.00 | 34 | 1020.0 |
| 20260510023904 | 12 | 306 | 0.0 | 0.0 | 0.00 | 0.00 | 0.00 | 26 | 1019.9 |
| 20260510023405 | 12 | 306 | 0.0 | 0.0 | 0.00 | 0.00 | 0.00 | 26 | 1019.8 |
| 20260510022903 | 13 | 306 | 0.0 | 0.0 | 0.00 | 0.00 | 0.00 | 26 | 1019.8 |
| 20260510022404 | 13 | 306 | 0.0 | 0.0 | 0.00 | 0.00 | 0.00 | 24 | 1019.8 |
| 20260510021905 | 13 | 306 | 0.0 | 0.0 | 0.00 | 0.00 | 0.00 | 25 | 1019.7 |
| 20260510021404 | 14 | 306 | 0.0 | 0.0 | 0.00 | 0.00 | 0.00 | 25 | 1019.7 |
| 20260510020905 | 14 | 306 | 0.0 | 0.0 | 0.00 | 0.00 | 0.00 | 24 | 1019.6 |
| 20260510020404 | 15 | 306 | 0.0 | 0.0 | 0.00 | 0.00 | 0.00 | 26 | 1019.6 |
| 20260510015904 | 15 | 306 | 0.0 | 0.0 | 0.00 | 0.00 | 0.00 | 22 | 1019.5 |
| 20260510015404 | 15 | 306 | 0.0 | 0.0 | 0.00 | 0.00 | 0.00 | 18 | 1019.5 |
| 20260510014404 | 16 | 307 | 0.0 | 0.0 | 0.00 | 0.00 | 0.00 | 18 | 1019.6 |
| 20260510013904 | 17 | 307 | 0.0 | 0.0 | 0.00 | 0.00 | 0.00 | 16 | 1019.6 |
| 20260510012903 | 17 | 307 | 0.0 | 0.0 | 0.00 | 0.00 | 0.00 | 13 | 1019.6 |
| 20260510012407 | 17 | 307 | 0.0 | 0.0 | 0.00 | 0.00 | 0.00 | 14 | 1019.5 |
| 20260510011904 | 17 | 307 | 0.0 | 0.0 | 0.00 | 0.00 | 0.00 | 13 | 1019.5 |
| 20260510011405 | 17 | 307 | 0.0 | 0.0 | 0.00 | 0.00 | 0.00 | 14 | 1019.6 |
| 20260510010904 | 17 | 307 | 0.0 | 8.0 | 0.00 | 0.00 | 0.00 | 14 | 1019.5 |
| 20260510010404 | 17 | 358 | 0.0 | 1.6 | 0.00 | 0.00 | 0.00 | 13 | 1019.6 |
| 20260510005904 | 17 | 0 | 0.0 | 1.6 | 0.00 | 0.00 | 0.00 | 15 | 1019.6 |
| 20260510005403 | 17 | 0 | 0.0 | 1.6 | 0.00 | 0.00 | 0.00 | 15 | 1019.5 |
| 20260510004904 | 17 | 0 | 0.0 | 4.8 | 0.00 | 0.00 | 0.00 | 12 | 1019.4 |
| 20260510004403 | 17 | 0 | 0.0 | 0.0 | 0.00 | 0.00 | 0.00 | 14 | 1019.4 |
| 20260510003404 | 17 | 5 | 0.0 | 3.2 | 0.00 | 0.00 | 0.00 | 16 | 1019.4 |
| 20260510002910 | 16 | 5 | 0.0 | 4.8 | 0.00 | 0.00 | 0.00 | 14 | 1019.2 |
| 20260510002404 | 16 | 3 | 1.6 | 11.3 | 0.00 | 0.00 | 0.00 | 13 | 1019.2 |
| 20260510001406 | 17 | 266 | 1.6 | 16.1 | 0.00 | 0.00 | 0.00 | 12 | 1019.2 |
| 20260510000404 | 17 | 233 | 4.8 | 16.1 | 0.00 | 0.00 | 0.00 | 13 | 1019.2 |
| 20260509235904 | 16 | 237 | 4.8 | 14.5 | 0.00 | 0.00 | 0.00 | 13 | 1019.2 |
| 20260509235404 | 16 | 238 | 0.0 | 4.8 | 0.00 | 0.00 | 0.00 | 14 | 1019.2 |
| 20260509234404 | 16 | 119 | 1.6 | 4.8 | 0.00 | 0.00 | 0.00 | 12 | 1019.2 |
| 20260509233904 | 16 | 126 | 0.0 | 0.0 | 0.00 | 0.00 | 0.00 | 15 | 1019.2 |
| 20260509233404 | 15 | 131 | 3.2 | 11.3 | 0.00 | 0.00 | 0.00 | 15 | 1019.1 |
| 20260509232903 | 15 | 32 | 1.6 | 8.0 | 0.00 | 0.00 | 0.00 | 14 | 1019.2 |
| 20260509232404 | 15 | 33 | 0.0 | 0.0 | 0.00 | 0.00 | 0.00 | 15 | 1019.2 |
| 20260509231904 | 15 | 43 | 0.0 | 0.0 | 0.00 | 0.00 | 0.00 | 15 | 1019.2 |
| 20260509230904 | 15 | 43 | 0.0 | 4.8 | 0.00 | 0.00 | 0.00 | 14 | 1019.1 |
| 20260509230404 | 16 | 44 | 3.2 | 8.0 | 0.00 | 0.00 | 0.00 | 13 | 1019.1 |
| 20260509225904 | 16 | 19 | 0.0 | 4.8 | 0.00 | 0.00 | 0.00 | 16 | 1019.2 |
| 20260509225404 | 16 | 33 | 0.0 | 4.8 | 0.00 | 0.00 | 0.00 | 13 | 1019.2 |
| 20260509224404 | 16 | 40 | 1.6 | 8.0 | 0.00 | 0.00 | 0.00 | 13 | 1019.0 |
| 20260509223907 | 16 | 271 | 0.0 | 11.3 | 0.00 | 0.00 | 0.00 | 14 | 1019.1 |
| 20260509223404 | 16 | 219 | 1.6 | 16.1 | 0.00 | 0.00 | 0.00 | 14 | 1019.1 |
| 20260509222904 | 17 | 242 | 8.0 | 14.5 | 0.00 | 0.00 | 0.00 | 14 | 1019.1 |
| 20260509222403 | 17 | 234 | 4.8 | 11.3 | 0.00 | 0.00 | 0.00 | 14 | 1019.1 |
| 20260509221910 | 17 | 354 | 0.0 | 19.3 | 0.00 | 0.00 | 0.00 | 13 | 1018.9 |
| 20260509221403 | 17 | 213 | 1.6 | 19.3 | 0.00 | 0.00 | 0.00 | 16 | 1018.9 |
| 20260509220904 | 17 | 220 | 4.8 | 16.1 | 0.00 | 0.00 | 0.00 | 14 | 1018.9 |
| 20260509220404 | 16 | 344 | 0.0 | 8.0 | 0.00 | 0.00 | 0.00 | 13 | 1019.0 |
| 20260509215904 | 16 | 32 | 1.6 | 14.5 | 0.00 | 0.00 | 0.00 | 14 | 1019.0 |
| 20260509214904 | 16 | 216 | 4.8 | 25.7 | 0.00 | 0.00 | 0.00 | 14 | 1019.0 |
| 20260509214404 | 16 | 242 | 1.6 | 4.8 | 0.00 | 0.00 | 0.00 | 14 | 1019.1 |
| 20260509213904 | 16 | 262 | 3.2 | 12.9 | 0.00 | 0.00 | 0.00 | 14 | 1019.1 |
| 20260509213404 | 16 | 205 | 9.7 | 19.3 | 0.00 | 0.00 | 0.00 | 15 | 1019.1 |
| 20260509212904 | 16 | 225 | 1.6 | 8.0 | 0.00 | 0.00 | 0.00 | 15 | 1019.1 |
| 20260509212404 | 16 | 217 | 4.8 | 14.5 | 0.00 | 0.00 | 0.00 | 15 | 1019.1 |
| 20260509210904 | 16 | 0 | 1.6 | 8.0 | 0.00 | 0.00 | 0.00 | 15 | 1019.0 |
| 20260509210404 | 15 | 234 | 0.0 | 0.0 | 0.00 | 0.00 | 0.00 | 16 | 1019.0 |
| 20260509205903 | 15 | 234 | 0.0 | 8.0 | 0.00 | 0.00 | 0.00 | 16 | 1019.0 |
| 20260509205404 | 15 | 236 | 0.0 | 0.0 | 0.00 | 0.00 | 0.00 | 16 | 1019.0 |
| 20260509204904 | 16 | 238 | 0.0 | 4.8 | 0.00 | 0.00 | 0.00 | 15 | 1019.0 |
| 20260509204404 | 16 | 6 | 1.6 | 4.8 | 0.00 | 0.00 | 0.00 | 14 | 1019.1 |
| 20260509203904 | 16 | 231 | 3.2 | 9.7 | 0.00 | 0.00 | 0.00 | 16 | 1019.0 |
| 20260509202904 | 16 | 225 | 14.5 | 24.1 | 0.00 | 0.00 | 0.00 | 18 | 1018.9 |
| 20260509202404 | 16 | 232 | 8.0 | 19.3 | 0.00 | 0.00 | 0.00 | 17 | 1018.9 |
| 20260509201904 | 16 | 246 | 8.0 | 19.3 | 0.00 | 0.00 | 0.00 | 18 | 1018.9 |
| 20260509201403 | 16 | 240 | 4.8 | 14.5 | 0.00 | 0.00 | 0.00 | 15 | 1019.0 |
| 20260509200904 | 16 | 9 | 0.0 | 12.9 | 0.00 | 0.00 | 0.00 | 17 | 1018.9 |
| 20260509200404 | 16 | 226 | 1.6 | 9.7 | 0.00 | 0.00 | 0.00 | 17 | 1019.0 |
| 20260509195904 | 15 | 228 | 8.0 | 20.9 | 0.00 | 0.00 | 0.00 | 21 | 1019.0 |
| 20260509195404 | 15 | 230 | 1.6 | 8.0 | 0.00 | 0.00 | 0.00 | 16 | 1019.0 |
| 20260509194904 | 15 | 347 | 3.2 | 19.3 | 0.00 | 0.00 | 0.00 | 16 | 1019.0 |
| 20260509194405 | 16 | 276 | 3.2 | 11.3 | 0.00 | 0.00 | 0.00 | 16 | 1018.9 |
| 20260509193904 | 16 | 210 | 4.8 | 19.3 | 0.00 | 0.00 | 0.00 | 16 | 1018.9 |
| 20260509193404 | 16 | 232 | 3.2 | 19.3 | 0.00 | 0.00 | 0.00 | 15 | 1018.9 |
| 20260509192903 | 16 | 230 | 8.0 | 19.3 | 0.00 | 0.00 | 0.00 | 17 | 1019.0 |
| 20260509192404 | 16 | 16 | 4.8 | 16.1 | 0.00 | 0.00 | 0.00 | 15 | 1018.8 |
| 20260509191904 | 16 | 176 | 1.6 | 12.9 | 0.00 | 0.00 | 0.00 | 19 | 1018.9 |
| 20260509190904 | 16 | 344 | 1.6 | 14.5 | 0.00 | 0.00 | 0.00 | 16 | 1019.0 |
| 20260509190411 | 16 | 40 | 1.6 | 9.7 | 0.00 | 0.00 | 0.00 | 16 | 1018.8 |
| 20260509185905 | 16 | 267 | 1.6 | 16.1 | 0.00 | 0.00 | 0.00 | 19 | 1018.9 |
| 20260509184904 | 15 | 37 | 1.6 | 12.9 | 0.00 | 0.00 | 0.00 | 16 | 1019.0 |
| 20260509184404 | 15 | 35 | 3.2 | 11.3 | 0.00 | 0.00 | 0.00 | 17 | 1019.0 |
| 20260509183904 | 15 | 268 | 0.0 | 9.7 | 0.00 | 0.00 | 0.00 | 18 | 1019.0 |
| 20260509183404 | 15 | 29 | 3.2 | 8.0 | 0.00 | 0.00 | 0.00 | 18 | 1019.1 |
| 20260509182904 | 15 | 305 | 0.0 | 9.7 | 0.00 | 0.00 | 0.00 | 19 | 1019.1 |
| 20260509182403 | 14 | 257 | 0.0 | 8.0 | 0.00 | 0.00 | 0.00 | 19 | 1019.1 |
| 20260509181919 | 13 | 46 | 3.2 | 9.7 | 0.00 | 0.00 | 0.00 | 19 | 1019.1 |
| 20260509181404 | 13 | 60 | 1.6 | 9.7 | 0.00 | 0.00 | 0.00 | 19 | 1019.2 |
| 20260509180904 | 13 | 44 | 4.8 | 29.0 | 0.00 | 0.00 | 0.00 | 19 | 1019.1 |
| 20260509180404 | 13 | 43 | 11.3 | 24.1 | 0.00 | 0.00 | 0.00 | 19 | 1019.1 |
| 20260509175904 | 13 | 34 | 4.8 | 12.9 | 0.00 | 0.00 | 0.00 | 20 | 1019.0 |
| 20260509175404 | 13 | 38 | 8.0 | 14.5 | 0.00 | 0.00 | 0.00 | 19 | 1018.9 |
| 20260509174904 | 14 | 34 | 4.8 | 19.3 | 0.00 | 0.00 | 0.00 | 19 | 1018.9 |
| 20260509174404 | 13 | 29 | 4.8 | 14.5 | 0.00 | 0.00 | 0.00 | 19 | 1018.8 |
| 20260509173404 | 14 | 22 | 9.7 | 20.9 | 0.00 | 0.00 | 0.00 | 20 | 1018.7 |
| 20260509172904 | 14 | 43 | 3.2 | 22.5 | 0.00 | 0.00 | 0.00 | 20 | 1018.7 |
| 20260509172411 | 14 | 40 | 6.4 | 14.5 | 0.00 | 0.00 | 0.00 | 20 | 1018.7 |
| 20260509171904 | 13 | 41 | 9.7 | 19.3 | 0.00 | 0.00 | 0.00 | 20 | 1018.8 |
| 20260509171404 | 13 | 52 | 4.8 | 25.7 | 0.00 | 0.00 | 0.00 | 20 | 1018.8 |
| 20260509170919 | 14 | 48 | 11.3 | 22.5 | 0.00 | 0.00 | 0.00 | 18 | 1018.9 |
| 20260509170404 | 14 | 39 | 4.8 | 24.1 | 0.00 | 0.00 | 0.00 | 19 | 1018.8 |
| 20260509165904 | 14 | 31 | 4.8 | 20.9 | 0.00 | 0.00 | 0.00 | 18 | 1018.8 |
| 20260509165404 | 14 | 3 | 4.8 | 14.5 | 0.00 | 0.00 | 0.00 | 19 | 1018.9 |
| 20260509164904 | 14 | 355 | 8.0 | 19.3 | 0.00 | 0.00 | 0.00 | 18 | 1018.8 |
| 20260509164404 | 14 | 9 | 1.6 | 14.5 | 0.00 | 0.00 | 0.00 | 18 | 1018.8 |
| 20260509163903 | 14 | 284 | 9.7 | 14.5 | 0.00 | 0.00 | 0.00 | 18 | 1018.8 |
| 20260509162903 | 14 | 99 | 3.2 | 12.9 | 0.00 | 0.00 | 0.00 | 18 | 1018.7 |
| 20260509162405 | 14 | 35 | 4.8 | 16.1 | 0.00 | 0.00 | 0.00 | 19 | 1018.8 |
| 20260509161905 | 14 | 35 | 3.2 | 16.1 | 0.00 | 0.00 | 0.00 | 18 | 1018.8 |
| 20260509161404 | 13 | 5 | 0.0 | 12.9 | 0.00 | 0.00 | 0.00 | 22 | 1018.8 |
| 20260509160903 | 13 | 222 | 8.0 | 20.9 | 0.00 | 0.00 | 0.00 | 21 | 1018.8 |
| 20260509155403 | 13 | 236 | 8.0 | 19.3 | 0.00 | 0.00 | 0.00 | 22 | 1018.6 |
| 20260509154904 | 13 | 276 | 6.4 | 19.3 | 0.00 | 0.00 | 0.00 | 23 | 1018.5 |
| 20260509154404 | 13 | 257 | 4.8 | 14.5 | 0.00 | 0.00 | 0.00 | 23 | 1018.5 |